[[{"header":{"parameterUnit":"m.s-1","parameterCategory":2,"la1":30.2992,"la2":30.254,"lo1":-89.0895,"lo2":-89.0443,"dy":0.0025,"dx":0.0025,"nx":19,"ny":19,"refTime":"2026-03-11T21:00:00:Z","depth":"0","parameterNumber":2,"parameterNumberName":"U-component_of_CURRENTS"},"data":[0,0,0,0.1518,0.1518,0.1511,0.1511,0.15,0.15,0,0,0,0,0,0,0,0,0,0,0,0.1518,0.1518,0.1518,0.1518,0.1511,0.1511,0.15,0.15,0,0,0,0,0,0,0,0,0,0,0,0.1518,0.1518,0.1518,0.1518,0.1511,0.1511,0.15,0.1504,0,0,0,0,0,0,0,0,0,0,0.1511,0.1511,0.1518,0.1518,0.1518,0.1511,0.1511,0.1505,0.1504,0.1505,0,0.1507,0,0.1507,0.15,0.15,0,0,0,0.1511,0.1511,0.1514,0.1518,0.1518,0.1511,0.1512,0.1504,0.1504,0.1505,0.1507,0.1507,0.1507,0.15,0.15,0.1525,0.1525,0,0,0.1512,0.1512,0.1514,0.1514,0.152,0.1512,0.1512,0.1504,0.1503,0.1507,0.1507,0.1507,0.15,0.15,0.1524,0.1525,0,0,0,0.1517,0.1512,0.1514,0.1514,0.1515,0.1512,0.1512,0.1503,0.1505,0.1506,0.1507,0.15,0.15,0.1524,0.1525,0.1541,0,0,0,0.1517,0.1516,0.1515,0.1514,0.1515,0.1509,0.1511,0.1506,0.1505,0.1507,0.15,0.15,0.1524,0.1524,0.1539,0.1548,0,0,0,0.1518,0.1516,0.1517,0.1514,0.1515,0.1509,0.151,0.1505,0.1506,0.15,0.15,0.1524,0.1524,0.1538,0.1546,0.1572,0,0,0,0.1515,0.1514,0.1517,0.1519,0.1515,0.1521,0.151,0.151,0.1506,0.15,0.1524,0.1525,0.1538,0.1545,0.1571,0.1564,0.1569,0,0,0.1512,0.1514,0.1515,0.1518,0.1521,0.1521,0.1531,0.1521,0.1518,0.1524,0.1525,0.154,0.1546,0.1572,0.1603,0.1607,0,0,0,0.1513,0.151,0.1514,0.1516,0.1525,0.1535,0.1531,0.1538,0.1544,0.1521,0.1549,0.1553,0.1568,0.1562,0.1565,0.1526,0.1528,0.1528,0.1527,0.1489,0.15,0.15,0.1513,0.1524,0.1544,0.1558,0.1568,0.156,0.1571,0.1573,0.1612,0.1606,0.1608,0.1568,0.158,0.158,0.158,0.158,0.1471,0.1463,0.1488,0.1491,0.1517,0.1532,0.1576,0.1585,0.1619,0.1601,0.1615,0.1587,0.1613,0.1568,0.1581,0.1581,0.1581,0.1581,0.1581,0.1436,0.1434,0.1446,0.1458,0.1481,0.152,0.1559,0.1597,0.1631,0.1651,0.1648,0.1648,0.1603,0.1659,0.1659,0.1659,0.1659,0.1659,0.1659,0.1389,0.1403,0.14,0.1419,0.143,0.1469,0.1546,0.1589,0.165,0.1671,0.1671,0.1614,0.1637,0.1627,0.1662,0.1661,0.1661,0.1661,0.1661,0.1333,0.1346,0.134,0.1346,0.1373,0.1378,0.1478,0.1574,0.1638,0.167,0.1648,0.1685,0.1681,0.1678,0.167,0.1714,0.1714,0.1714,0.1714,0.1292,0.1298,0.1286,0.1285,0.1298,0.1334,0.1361,0.1454,0.1573,0.1605,0.1648,0.1616,0.1616,0.1606,0.1605,0.1594,0.1618,0.1618,0.1618,0.1257,0.1265,0.1236,0.1241,0.1252,0.1273,0.1254,0.1306,0.1493,0.161,0.1596,0.16,0.1548,0.1551,0.153,0.1531,0.1512,0,0]},{"header":{"parameterUnit":"m.s-1","parameterCategory":2,"la1":30.2992,"la2":30.254,"lo1":-89.0895,"lo2":-89.0443,"dy":0.0025,"dx":0.0025,"nx":19,"ny":19,"refTime":"2026-03-11T21:00:00:Z","depth":"0","parameterNumber":3,"parameterNumberName":"V-component_of_CURRENTS"},"data":[0,0,0,-0.0139,-0.0139,-0.0149,-0.0149,-0.0155,-0.0155,0,0,0,0,0,0,0,0,0,0,0,-0.0135,-0.0135,-0.0139,-0.0139,-0.0149,-0.0149,-0.0155,-0.0155,0,0,0,0,0,0,0,0,0,0,0,-0.0135,-0.0135,-0.0135,-0.0139,-0.0149,-0.0149,-0.0155,-0.015,0,0,0,0,0,0,0,0,0,0,-0.0142,-0.0137,-0.0135,-0.0135,-0.0139,-0.0149,-0.0149,-0.015,-0.015,-0.0148,0,-0.0146,0,-0.0149,-0.0154,-0.0154,0,0,0,-0.0142,-0.0137,-0.0139,-0.0135,-0.0139,-0.0149,-0.0145,-0.015,-0.015,-0.0148,-0.0146,-0.0146,-0.0149,-0.0154,-0.0154,-0.013,-0.013,0,0,-0.0142,-0.0138,-0.0139,-0.0139,-0.0138,-0.0145,-0.0146,-0.015,-0.0149,-0.0146,-0.0146,-0.0149,-0.0154,-0.0154,-0.0131,-0.013,0,0,0,-0.0138,-0.0137,-0.0139,-0.0139,-0.014,-0.0145,-0.0146,-0.0149,-0.0149,-0.0147,-0.015,-0.0154,-0.0154,-0.0131,-0.0131,-0.0086,0,0,0,-0.0138,-0.0135,-0.0139,-0.0137,-0.014,-0.0146,-0.0144,-0.0149,-0.015,-0.015,-0.0154,-0.0154,-0.0131,-0.0131,-0.0088,-0.0056,0,0,0,-0.0135,-0.0135,-0.0134,-0.0137,-0.0139,-0.0146,-0.0147,-0.0149,-0.0151,-0.0154,-0.0154,-0.0131,-0.0131,-0.009,-0.0059,-0.0027,0,0,0,-0.0133,-0.0118,-0.0134,-0.0117,-0.0139,-0.0123,-0.0147,-0.0142,-0.0142,-0.0154,-0.0131,-0.0131,-0.009,-0.0061,-0.0029,0.0006,0.0019,0,0,-0.011,-0.0115,-0.0104,-0.0118,-0.0089,-0.0122,-0.0093,-0.011,-0.0132,-0.0131,-0.013,-0.0087,-0.006,-0.0027,0.0041,0.0053,0,0,0,-0.0094,-0.0082,-0.0077,-0.0065,-0.0065,-0.0055,-0.0077,-0.0086,-0.0091,-0.0129,-0.0087,-0.0071,-0.0052,-0.0036,-0.0026,-0.01,-0.0128,-0.0128,-0.0128,-0.0047,-0.0047,-0.0017,-0.0012,-0.0004,-0.001,-0.0005,-0.0021,-0.0054,-0.0052,-0.0035,0.0021,0.0038,0.0046,-0.0031,-0.0043,-0.0043,-0.0042,-0.0042,0.0006,0.0028,0.003,0.0055,0.0061,0.0076,0.0068,0.0045,0.0051,0.0009,0.0025,0.001,0.0059,-0.0026,-0.0039,-0.004,-0.004,-0.0041,-0.0041,0.0048,0.0059,0.0067,0.0102,0.0131,0.0127,0.0168,0.014,0.0102,0.0116,0.0124,0.0123,0.0049,0.0118,0.0118,0.0119,0.0119,0.0119,0.0119,0.0085,0.0097,0.0126,0.0152,0.0178,0.0214,0.0223,0.0234,0.0221,0.0187,0.0187,0.0064,0.007,0.0065,0.0124,0.0123,0.0122,0.0122,0.0122,0.0138,0.0135,0.0183,0.0211,0.0271,0.0332,0.0338,0.0364,0.0354,0.0357,0.0179,0.0223,0.0215,0.0207,0.0205,0.0297,0.0297,0.0297,0.0297,0.0172,0.0173,0.0235,0.0287,0.0354,0.0391,0.0469,0.0466,0.0352,0.0272,0.0208,0.0161,0.0158,0.0142,0.0135,0.013,0.02,0.02,0.02,0.0208,0.0221,0.027,0.0311,0.0385,0.0459,0.052,0.0519,0.0336,0.0185,0.01,0.0104,0.002,0.002,-0.0019,-0.0022,-0.0037,0,0]}],[{"header":{"parameterUnit":"m.s-1","parameterCategory":2,"la1":30.2992,"la2":30.254,"lo1":-89.0895,"lo2":-89.0443,"dy":0.0025,"dx":0.0025,"nx":19,"ny":19,"refTime":"2026-03-11T21:00:00:Z","depth":"2","parameterNumber":2,"parameterNumberName":"U-component_of_CURRENTS"},"data":[0,0,0,0.1538,0.1538,0.1541,0.1541,0.1541,0.1541,0,0,0,0,0,0,0,0,0,0,0,0.1535,0.1535,0.1538,0.1538,0.1541,0.1541,0.1541,0.1541,0,0,0,0,0,0,0,0,0,0,0,0.1535,0.1535,0.1535,0.1538,0.1541,0.1541,0.1541,0.1538,0,0,0,0,0,0,0,0,0,0,0.1535,0.1534,0.1535,0.1535,0.1538,0.1541,0.1541,0.1538,0.1538,0.154,0,0.1544,0,0.1546,0.1541,0.1541,0,0,0,0.1532,0.1533,0.1538,0.1535,0.1538,0.1541,0.1538,0.1538,0.1538,0.154,0.1544,0.1544,0.1546,0.1541,0.1541,0.1571,0.1572,0,0,0.1532,0.1532,0.1537,0.1538,0.1544,0.1538,0.1538,0.1538,0.1539,0.1544,0.1544,0.1546,0.1541,0.1541,0.1571,0.1571,0,0,0,0.1535,0.1531,0.1535,0.1538,0.1541,0.1538,0.1539,0.1539,0.1541,0.1544,0.1546,0.1541,0.1541,0.1571,0.1571,0.1587,0,0,0,0.1535,0.1534,0.1535,0.1535,0.1541,0.154,0.1539,0.1541,0.1541,0.1546,0.1541,0.1541,0.157,0.1571,0.1586,0.1594,0,0,0,0.1534,0.1534,0.1536,0.1535,0.1539,0.154,0.1542,0.1541,0.1542,0.1541,0.1542,0.157,0.1571,0.1585,0.1592,0.1618,0,0,0,0.153,0.1532,0.1536,0.1541,0.154,0.155,0.1542,0.1547,0.1547,0.1541,0.157,0.1571,0.1584,0.1591,0.1616,0.1596,0.16,0,0,0.153,0.1532,0.1536,0.154,0.1547,0.1549,0.1564,0.156,0.1559,0.1568,0.1569,0.1586,0.1592,0.1617,0.1635,0.1637,0,0,0,0.1533,0.1533,0.1537,0.1543,0.1555,0.1568,0.1569,0.1576,0.1587,0.1563,0.1595,0.1599,0.1614,0.16,0.1602,0.1574,0.1574,0.1574,0.1574,0.1514,0.1525,0.1529,0.1544,0.1557,0.158,0.1597,0.1609,0.1602,0.1615,0.1618,0.1658,0.1642,0.1644,0.1625,0.1626,0.1626,0.1626,0.1626,0.15,0.1495,0.152,0.1527,0.1554,0.1572,0.1617,0.1627,0.1662,0.1646,0.166,0.1625,0.1647,0.1627,0.1627,0.1627,0.1627,0.1626,0.1626,0.1469,0.1468,0.1481,0.1497,0.1523,0.1563,0.1603,0.1642,0.1675,0.1695,0.1684,0.1683,0.1667,0.1703,0.1703,0.1703,0.1703,0.1704,0.1704,0.1424,0.144,0.1439,0.1462,0.1474,0.1516,0.1592,0.1633,0.1687,0.1704,0.1704,0.1684,0.1681,0.1672,0.1706,0.1706,0.1705,0.1705,0.1705,0.1374,0.1386,0.1383,0.1391,0.1422,0.1426,0.1524,0.1609,0.1671,0.1696,0.1713,0.1712,0.1708,0.1705,0.1696,0.1735,0.1735,0.1735,0.1735,0.1335,0.1342,0.1333,0.1334,0.1349,0.1383,0.1396,0.1455,0.157,0.16,0.1606,0.1568,0.157,0.1555,0.1556,0.1543,0.1542,0.1541,0.1541,0.1303,0.1311,0.1285,0.1293,0.1305,0.132,0.1278,0.1241,0.1357,0.1529,0.1523,0.1732,0.169,0.1689,0.1676,0.1673,0.1657,0,0]},{"header":{"parameterUnit":"m.s-1","parameterCategory":2,"la1":30.2992,"la2":30.254,"lo1":-89.0895,"lo2":-89.0443,"dy":0.0025,"dx":0.0025,"nx":19,"ny":19,"refTime":"2026-03-11T21:00:00:Z","depth":"2","parameterNumber":3,"parameterNumberName":"V-component_of_CURRENTS"},"data":[0,0,0,-0.0033,-0.0033,-0.005,-0.005,-0.0059,-0.0059,0,0,0,0,0,0,0,0,0,0,0,-0.0026,-0.0026,-0.0033,-0.0033,-0.005,-0.005,-0.0059,-0.0059,0,0,0,0,0,0,0,0,0,0,0,-0.0026,-0.0026,-0.0026,-0.0033,-0.005,-0.005,-0.0059,-0.005,0,0,0,0,0,0,0,0,0,0,-0.0035,-0.003,-0.0026,-0.0026,-0.0033,-0.005,-0.005,-0.005,-0.0051,-0.0047,0,-0.0048,0,-0.0052,-0.0059,-0.0059,0,0,0,-0.0036,-0.003,-0.0034,-0.0026,-0.0033,-0.005,-0.0043,-0.005,-0.0051,-0.0048,-0.0048,-0.0048,-0.0053,-0.0059,-0.0059,-0.004,-0.004,0,0,-0.0035,-0.003,-0.0033,-0.0034,-0.0035,-0.0043,-0.0044,-0.0051,-0.0051,-0.0048,-0.0049,-0.0053,-0.0059,-0.0059,-0.004,-0.004,0,0,0,-0.003,-0.003,-0.0034,-0.0034,-0.0037,-0.0043,-0.0044,-0.0051,-0.0052,-0.0049,-0.0053,-0.0059,-0.0059,-0.0041,-0.004,-0.0002,0,0,0,-0.003,-0.0027,-0.0033,-0.0031,-0.0037,-0.0046,-0.0044,-0.0051,-0.0053,-0.0053,-0.0059,-0.0059,-0.0041,-0.004,-0.0003,0.0026,0,0,0,-0.0026,-0.0027,-0.0028,-0.0031,-0.0037,-0.0046,-0.0048,-0.0052,-0.0055,-0.0059,-0.0059,-0.0041,-0.004,-0.0005,0.0023,0.0051,0,0,0,-0.0022,-0.0012,-0.0027,-0.0015,-0.0037,-0.0025,-0.0048,-0.0047,-0.0048,-0.0059,-0.0041,-0.004,-0.0005,0.0021,0.0049,0.008,0.0091,0,0,-0.0005,-0.001,-0.0002,-0.0015,0.0008,-0.0023,-0.0001,-0.0019,-0.0039,-0.0038,-0.0038,-0.0003,0.0023,0.005,0.0109,0.0119,0,0,0,0.0007,0.0016,0.002,0.0028,0.0026,0.0034,0.0011,0.0002,-0.0006,-0.0038,-0.0003,0.0012,0.0028,0.0042,0.0051,-0.0038,-0.0038,-0.0038,-0.0038,0.0045,0.0045,0.0069,0.0073,0.0079,0.0071,0.0074,0.0057,0.0027,0.0028,0.0042,0.0091,0.0106,0.0113,0.0035,0.0035,0.0035,0.0035,0.0035,0.0088,0.0106,0.0109,0.0129,0.0134,0.0145,0.0136,0.0114,0.0117,0.008,0.0094,0.0082,0.0124,0.0038,0.0038,0.0037,0.0037,0.0037,0.0037,0.0123,0.0131,0.0138,0.0169,0.0193,0.0189,0.0226,0.0199,0.0162,0.0174,0.0181,0.018,0.0121,0.0176,0.0176,0.0176,0.0176,0.0176,0.0177,0.0152,0.0162,0.0188,0.0211,0.0235,0.0267,0.0275,0.0284,0.0269,0.0237,0.0237,0.0138,0.0134,0.0129,0.0181,0.018,0.0179,0.0179,0.0179,0.0194,0.0193,0.0236,0.0261,0.0317,0.0374,0.038,0.0401,0.0389,0.039,0.0271,0.0268,0.0261,0.0254,0.0252,0.0332,0.0332,0.0332,0.0333,0.0222,0.0224,0.028,0.0329,0.0392,0.0428,0.0498,0.0486,0.0429,0.0378,0.0375,0.0345,0.0338,0.0333,0.0324,0.0323,0.0421,0.0421,0.0421,0.0252,0.0265,0.0309,0.0349,0.0421,0.0491,0.0543,0.0517,0.0434,0.0423,0.0372,0.0342,0.029,0.0282,0.0265,0.0254,0.0248,0,0]}],[{"header":{"parameterUnit":"m.s-1","parameterCategory":2,"la1":30.2992,"la2":30.254,"lo1":-89.0895,"lo2":-89.0443,"dy":0.0025,"dx":0.0025,"nx":19,"ny":19,"refTime":"2026-03-11T21:00:00:Z","depth":"4","parameterNumber":2,"parameterNumberName":"U-component_of_CURRENTS"},"data":[0,0,0,0.1111,0.1113,0.1215,0.1215,0.1286,0.1287,0,0,0,0,0,0,0,0,0,0,0,0.1079,0.108,0.1111,0.1113,0.1215,0.1215,0.1286,0.1287,0,0,0,0,0,0,0,0,0,0,0,0.1079,0.108,0.1081,0.1114,0.1215,0.1215,0.1286,0.1223,0,0,0,0,0,0,0,0,0,0,0.1132,0.1114,0.108,0.1081,0.1114,0.1214,0.1215,0.1221,0.1227,0.1224,0,0.125,0,0.1269,0.129,0.129,0,0,0,0.1111,0.1109,0.1135,0.1081,0.1115,0.1214,0.1168,0.1225,0.1232,0.1232,0.1251,0.1254,0.127,0.1291,0.1291,0.136,0.136,0,0,0.1105,0.1097,0.113,0.1139,0.1154,0.1165,0.1171,0.123,0.1242,0.1251,0.1256,0.1271,0.1291,0.1291,0.136,0.136,0,0,0,0.1091,0.1093,0.1118,0.1136,0.1159,0.1168,0.1175,0.1239,0.1248,0.1257,0.1272,0.1291,0.1292,0.1359,0.136,0.138,0,0,0,0.1087,0.1085,0.1116,0.1112,0.1158,0.1209,0.1183,0.1244,0.1251,0.1272,0.1291,0.1292,0.1359,0.136,0.1379,0.1385,0,0,0,0.1072,0.1083,0.1098,0.1111,0.1156,0.1209,0.1221,0.1246,0.126,0.129,0.1293,0.1359,0.136,0.1377,0.1383,0.1406,0,0,0,0.1055,0.1078,0.1098,0.1131,0.1155,0.121,0.1221,0.1269,0.1297,0.1292,0.1359,0.136,0.1377,0.1382,0.1405,0.1237,0,0,0,0.1067,0.1079,0.1097,0.1117,0.1163,0.1195,0.1248,0.1292,0.1306,0.1334,0.1337,0.1379,0.1383,0.1406,0.1288,0,0,0,0,0.1089,0.1103,0.1121,0.1158,0.1199,0.1246,0.129,0.1313,0.1361,0.1329,0.139,0.1392,0.1406,0.1305,0.1364,0.1364,0.1364,0.1364,0.1364,0.1082,0.1108,0.114,0.1181,0.1221,0.1286,0.1326,0.1366,0.1376,0.1405,0.1417,0.146,0.1354,0.1428,0.1428,0.1428,0.1428,0.1428,0.1429,0.1088,0.11,0.1151,0.1194,0.1248,0.1302,0.137,0.1396,0.1453,0.1448,0.146,0.1343,0.1431,0.143,0.143,0.143,0.143,0.1429,0.1429,0.1064,0.1073,0.1118,0.118,0.1246,0.1316,0.1367,0.1427,0.1472,0.1495,0.1394,0.1478,0.1467,0.1508,0.1508,0.1508,0.1509,0.1509,0.1509,0.1014,0.1056,0.1092,0.1163,0.1206,0.1274,0.1372,0.1403,0.1464,0.1401,0.1508,0.1486,0.1484,0.1472,0.1511,0.151,0.151,0.151,0.151,0.097,0.1,0.1039,0.1082,0.1164,0.1191,0.1305,0.1323,0.1347,0.1327,0.135,0.1357,0.1335,0.1336,0.1318,0.1313,0.1311,0.1309,0,0.0931,0.095,0.0994,0.1032,0.1059,0.1136,0.1121,0.1174,0.1226,0.1188,0.1358,0.1383,0.1387,0.1362,0.136,0.1338,0,0,0,0.0905,0.0924,0.0933,0.0981,0.1002,0.103,0.1109,0.1084,0.1219,0.1186,0.1258,0.1271,0.1417,0.1517,0.1501,0.1498,0.1478,0,0]},{"header":{"parameterUnit":"m.s-1","parameterCategory":2,"la1":30.2992,"la2":30.254,"lo1":-89.0895,"lo2":-89.0443,"dy":0.0025,"dx":0.0025,"nx":19,"ny":19,"refTime":"2026-03-11T21:00:00:Z","depth":"4","parameterNumber":3,"parameterNumberName":"V-component_of_CURRENTS"},"data":[0,0,0,0.0069,0.0069,0.0048,0.0048,0.0033,0.0033,0,0,0,0,0,0,0,0,0,0,0,0.0077,0.0077,0.0069,0.0069,0.0048,0.0048,0.0033,0.0033,0,0,0,0,0,0,0,0,0,0,0,0.0077,0.0077,0.0077,0.0069,0.0048,0.0048,0.0033,0.0045,0,0,0,0,0,0,0,0,0,0,0.0063,0.0071,0.0077,0.0077,0.0068,0.0048,0.0048,0.0045,0.0044,0.0046,0,0.0045,0,0.004,0.0032,0.0032,0,0,0,0.0066,0.0072,0.0066,0.0077,0.0068,0.0048,0.0057,0.0045,0.0043,0.0045,0.0045,0.0044,0.0039,0.0032,0.0032,0.0039,0.0039,0,0,0.0067,0.0073,0.0067,0.0065,0.0066,0.0057,0.0056,0.0044,0.0044,0.0045,0.0044,0.0039,0.0032,0.0032,0.0039,0.0039,0,0,0,0.0072,0.0074,0.0068,0.0066,0.0062,0.0057,0.0055,0.0044,0.0042,0.0043,0.0039,0.0032,0.0032,0.0039,0.0039,0.0067,0,0,0,0.0073,0.0077,0.0068,0.0072,0.0062,0.0052,0.0056,0.0043,0.0042,0.0039,0.0032,0.0032,0.0038,0.0039,0.0066,0.0089,0,0,0,0.0077,0.0077,0.0076,0.0072,0.0064,0.0052,0.0049,0.0043,0.0039,0.0032,0.0032,0.0038,0.0039,0.0065,0.0087,0.0104,0,0,0,0.0083,0.0087,0.0076,0.0081,0.0064,0.0067,0.0049,0.0046,0.0042,0.0032,0.0038,0.0039,0.0065,0.0086,0.0102,0.011,0,0,0,0.0092,0.0088,0.0092,0.0082,0.0093,0.0069,0.008,0.0063,0.0047,0.0042,0.0042,0.0067,0.0087,0.0103,0.0127,0,0,0,0,0.0098,0.0101,0.0103,0.0106,0.0102,0.0105,0.0085,0.0076,0.0066,0.0046,0.0065,0.0077,0.0086,0.0087,0.004,0.004,0.004,0.004,0.004,0.012,0.0118,0.0132,0.0132,0.0135,0.0127,0.0125,0.011,0.0089,0.0087,0.0098,0.013,0.0131,0.009,0.009,0.0091,0.0091,0.0091,0.0091,0.0141,0.015,0.0155,0.0166,0.0169,0.0176,0.0165,0.015,0.0148,0.0123,0.0131,0.0115,0.0094,0.0093,0.0093,0.0092,0.0092,0.0092,0.0092,0.0159,0.0162,0.017,0.019,0.0209,0.0207,0.0231,0.0212,0.0182,0.019,0.0184,0.0153,0.0152,0.019,0.019,0.019,0.019,0.0191,0.0191,0.017,0.0178,0.0198,0.0216,0.0236,0.0262,0.0269,0.0272,0.0245,0.0227,0.0201,0.0163,0.016,0.0158,0.0193,0.0193,0.0193,0.0192,0.0192,0.0183,0.019,0.0221,0.0243,0.0289,0.031,0.0321,0.0316,0.0319,0.0302,0.0242,0.0239,0.0231,0.0227,0.0227,0.0284,0.0284,0.0284,0,0.0194,0.0198,0.0241,0.0282,0.0326,0.0342,0.0361,0.0358,0.0318,0.0308,0.0309,0.0242,0.0239,0.023,0.0226,0.0226,0,0,0,0.0204,0.0218,0.0249,0.0289,0.0339,0.0359,0.0366,0.0357,0.0323,0.0326,0.029,0.0289,0.0251,0.0202,0.0182,0.0178,0.0174,0,0]}]]